Flag for Canada Weather past 2 weeks in Quispamsis, New Brunswick, Canada

Now
36 °F

Light rain. Fog.


Feels Like: 26 °F
Forecast: N/A
Wind: 16 mph from Northeast

Location: Saint John

Current Time: Apr 27, 2015 at 6:38:13 PM

Latest Report: Apr 27, 2015 at 6:00 PM


Visibility: 7 mi

Pressure: 29.45 "Hg

Humidity: 93%

Dew point: 34 °F

Location of QuispamsisLocation

Historic Weather in Quispamsis — Graph

°F

Quispamsis temperature yesterday

Maximum temperature yesterday: 48 °F (at 11:00 AM)
Minimum temperature yesterday: 28 °F (at 12:00 AM)
Average temperature yesterday: 39 °F

Past Weeks' High & Low Weather Summary

 TemperatureHumidityPressure
High59 °F (Apr 22, 3:00 PM)100% (Apr 14, 1:00 PM)30.42 "Hg (Apr 14, 1:00 PM)
Low23 °F (Apr 20, 4:00 AM)23% (Apr 16, 3:00 PM)29.38 "Hg (Apr 27, 12:00 PM)
Average39 °F77%29.91 "Hg
* Reported Apr 12 5:00 PM — Apr 27 5:00 PM, Quispamsis, Weather by CustomWeather, © 2015

Note: Actual official high and low records may vary slightly from our data, if they occured in-between our weather recording intervals... More about our weather records

Advertising

Quispamsis weather history for previous 24 hours

 ConditionsComfort  
Time TempWeatherWind HumidityBarometerVisibility
5:00 PM
Mon, Apr 27
37 °FLight rain. More clouds than sun.20 mph87%29.43 "Hg8 mi
4:00 PM39 °FLight rain. More clouds than sun.24 mph87%29.41 "Hg7 mi
3:00 PM39 °FLight rain. More clouds than sun.24 mph87%29.40 "Hg7 mi
2:00 PM39 °FLight rain. More clouds than sun.15 mph93%29.41 "Hg10 mi
1:00 PM39 °FLight rain. Fog.20 mph93%29.40 "Hg6 mi
12:00 PM39 °FLight rain. Fog.15 mph93%29.38 "Hg4 mi
11:00 AM36 °FLight rain. Fog.18 mph93%29.40 "Hg6 mi
10:00 AM36 °FLight rain. Fog.15 mph93%29.41 "Hg5 mi
9:00 AM36 °FLight rain. Fog.14 mph93%29.44 "Hg4 mi
8:45 AM36 °FLight rain. Fog.14 mph93%29.44 "Hg5 mi
8:00 AM36 °FFog.15 mph93%29.46 "Hg5 mi
7:00 AM36 °FLight rain. Fog.12 mph93%29.47 "Hg3 mi
6:00 AM36 °FLight rain. Fog.9 mph93%29.49 "Hg2 mi
5:00 AM36 °FLight rain. Fog.5 mph93%29.50 "Hg5 mi
4:00 AM36 °FMostly cloudy.7 mph93%29.52 "Hg15 mi
3:00 AM36 °FMostly cloudy.8 mph93%29.54 "Hg15 mi
2:00 AM36 °FMostly cloudy.10 mph93%29.54 "Hg15 mi
1:00 AM36 °FMostly cloudy.8 mph93%29.56 "Hg15 mi
12:00 AM36 °FMostly cloudy.8 mph93%29.57 "Hg15 mi
11:00 PM
Sun, Apr 26
37 °FMostly cloudy.6 mph93%29.58 "Hg15 mi
10:00 PM39 °FMostly cloudy.6 mph87%29.59 "Hg15 mi
9:00 PM39 °FSprinkles. More clouds than sun.6 mph93%29.59 "Hg12 mi
8:00 PM41 °FSprinkles. Overcast.6 mph87%29.59 "Hg15 mi
7:00 PM43 °FOvercast.5 mph81%29.58 "Hg15 mi
6:00 PM45 °FSprinkles. Overcast.6 mph71%29.59 "Hg15 mi
Weather by CustomWeather, © 2015

See weather overviewHow to use our weather pages